Printer-friendly version
Follow the MPC on Twitter Follow the MPC on Facebook The MPC blog
Minor Planet Center

MPEC 2006-K34 : 2006 KK21

The following Minor Planet Electronic Circular may be linked-to from your own Web pages, but must not otherwise be redistributed electronically.

A form allowing access to any MPEC is at the bottom of this page.


Read MPEC 2006-K33 Read MPEC 2006-K35


M.P.E.C. 2006-K34                                Issued 2006 May 23, 22:56 UT

     The Minor Planet Electronic Circulars contain information on unusual
         minor planets and routine data on comets.  They are published
   on behalf of Commission 20 of the International Astronomical Union by the
          Minor Planet Center, Smithsonian Astrophysical Observatory,
                          Cambridge, MA 02138, U.S.A.

                  Supported in part by the Brinson Foundation
                  Supported in part by the TABASGO Foundation
             Prepared using the Tamkin Foundation Computer Network

                              MPC@CFA.HARVARD.EDU
          URL http://cfa-www.harvard.edu/iau/mpc.html  ISSN 1523-6714

                                   2006 KK21

Observations:
     K06K21K* C2006 05 23.35289 14 59 52.80 +18 49 28.5          19.1 V EK034703
     K06K21K  C2006 05 23.35993 14 59 52.08 +18 48 56.7          20.0 V EK034703
     K06K21K  C2006 05 23.37405 14 59 50.71 +18 47 52.1          19.8 V EK034703
     K06K21K  C2006 05 23.39623 14 59 48.48 +18 46 07.7          19.7 V EK034703
     K06K21K  C2006 05 23.39993 14 59 48.08 +18 45 49.5          19.6 V EK034703
     K06K21K  C2006 05 23.40363 14 59 47.72 +18 45 33.0          19.4 V EK034703
     K06K21K  C2006 05 23.40734 14 59 47.32 +18 45 15.7          19.7 V EK034703
     K06K21K  C2006 05 23.41262 14 59 46.87 +18 44 51.5          19.8 V EK034703
     K06K21K  C2006 05 23.41620 14 59 46.44 +18 44 35.2                 EK034703
     K06K21K  C2006 05 23.41983 14 59 46.16 +18 44 18.7          19.2 V EK034703
     K06K21K  C2006 05 23.42343 14 59 45.76 +18 44 01.6          19.5 V EK034703
     K06K21K  C2006 05 23.84816 14 59 10.51 +18 12 13.8          19.6 V EK034A50
     K06K21K  C2006 05 23.84900 14 59 10.42 +18 12 10.6          19.6 V EK034A50
     K06K21K  C2006 05 23.85215 14 59 10.15 +18 11 57.7          19.7 V EK034A50
     K06K21K  C2006 05 23.85341 14 59 10.04 +18 11 51.5          19.8 V EK034A50
     K06K21K  C2006 05 23.90446 14 59 05.75 +18 08 09.4          19.8 V EK034198
     K06K21K  C2006 05 23.90516 14 59 05.69 +18 08 06.4          19.8 V EK034198
     K06K21K  C2006 05 23.90792 14 59 05.43 +18 07 54.2          19.8 V EK034198
     K06K21K  C2006 05 23.91065 14 59 05.17 +18 07 42.0          19.9 V EK034198

Observer details:
198 Wildberg.  Observer R. Apitzsch.  0.35-m f/4.2 reflector + CCD.
703 Catalina Sky Survey.  Observer E. C. Beshore.  Measurers E. C. Beshore,
    E. J. Christensen, G. J. Garradd, A. R. Gibbs, A. D. Grauer, R. E. Hill,
    R. A. Kowalski, S. M. Larson, R. H. McNaught.  0.68-m Schmidt + CCD.
A50 Andrushivka Astronomical Observatory.  Observers O. Gerashchenko,
    Y. Ivashchenko.  0.6-m reflector + CCD.

Orbital elements:
2006 KK21                                                Earth MOID = 0.0867 AU
Epoch 2006 Mar. 6.0 TT = JDT 2453800.5                  MPC
M 353.73439              (2000.0)            P               Q
n   0.28672584     Peri.  267.45228     -0.41091648     -0.90511392
a   2.2776736      Node   207.63092     +0.90167751     -0.38580502
e   0.8438492      Incl.   13.61394     +0.13463028     -0.17867088
P   3.44           H   20.7           G   0.15           U   9
Residuals in seconds of arc
060523 703  0.4-  0.2-    060523 703  0.4+  0.1+    060523 A50  0.3+  0.5+
060523 703  0.4-  0.7+    060523 703  0.7-  0.4+    060523 198  0.3-  0.4+
060523 703  0.4+  1.7+    060523 703  0.4+  0.7+    060523 198  0.2-  0.4+
060523 703  0.3+  0.3+    060523 703  0.3-  0.3+    060523 198  0.2-  0.2+
060523 703  0.1-  0.7-    060523 A50  0.1-  0.2-    060523 198  0.3-  0.1-
060523 703  0.1-  0.1-    060523 A50  0.2-  0.3+
060523 703  0.5-  0.2-    060523 A50  0.2+  1.2+

Ephemeris:
2006 KK21                a,e,i = 2.28, 0.84, 14                  q = 0.3557
Date    TT    R. A. (2000) Decl.     Delta      r     Elong.  Phase     V
2006 05 15    15 31.19   +38 43.9    0.135    1.089   122.5    51.5    18.4
2006 05 25    14 57.68   +16 53.4    0.286    1.242   138.7    32.6    19.8
2006 06 04    14 51.77   +09 34.1    0.458    1.387   137.4    29.7    21.0
2006 06 14    14 52.06   +05 30.6    0.641    1.523   132.2    29.6    21.9
2006 06 24    14 55.39   +02 39.1    0.835    1.651   126.0    29.9    22.7
2006 07 04    15 00.78   +00 22.2    1.038    1.774   119.4    30.0    23.3

Timothy B. Spahr             (C) Copyright 2006 MPC           M.P.E.C. 2006-K34

Read MPEC 2006-K33 Read MPEC 2006-K35


MPEC number:

Enter an MPEC number in one of the following forms:

  • 1997-B01 (the full form)
  • J97B01 (the packed version of the full form)
  • B01 (the abbreviated form)

Valid HTML 4.01!